Tracking 26217 objects as of 28-Sep-2022
HD Live streaming from Space Station
objects crossing your sky now

NSS 703 (INTELSAT 703)

Track NSS 703 (INTELSAT 703) now!
NSS 703 (INTELSAT 703) is classified as:


NORAD ID: 23305
Int'l Code: 1994-064A
Perigee: 36,058.1 km
Apogee: 36,078.1 km
Inclination: 9.3 °
Period: 1,450.1 minutes
Semi major axis: 42439 km
RCS: 0.003 m2 (small)
Launch date: October 6, 1994
Source: SOCIETE EUROPEENNE DES SATELLITES (SES)
Launch site: AIR FORCE EASTERN TEST RANGE (AFETR)

Africa, Japan, India, China, Australia; 26 C-band, 10 Ku-band; shared capacity with Intelset.
aabbcc
Your satellite tracking list
Your tracking list is empty




NASA's NSSDC Master Catalog

Two Line Element Set (TLE):
1 23305U 94064A   22270.51240656  .00000020  00000-0  00000-0 0  9990
2 23305   9.2799  46.3678 0002364 210.7697 189.2604  0.99300975102243
Source of the keplerian elements: AFSPC